This demonstration page uses our WeatherBlox Daily Observations layout. Learn more.

40.92945, -100.16068

Hourly Observations for June 23, 2017

Temp ( °F °C ) Dew Point ( °F °C ) Humidity (%) Winds ( mph kmh ) Pressure ( in mb ) Visibility ( mi km ) Precip ( " mm )
12:15 am 00:15 Clear 64 18 53 11.8 67 67 NNE 8 13 29.85 1011 10 16.0934 0 0
12:35 am 00:35 Clear 64 17.6 53 11.6 68 68 NNE 5 7 29.88 1012 10 16.0934 0 0
12:55 am 00:55 Clear 62 16.7 53 11.5 72 72 N 5 7 29.88 1012 10 16.0934 0 0
1:15 am 01:15 Clear 61 16.1 53 11.5 74 74 Calm 29.88 1012 10 16.0934 0 0
1:35 am 01:35 Clear 60 15.7 52 11.3 75 75 Calm 29.91 1013 10 16.0934 0 0
1:55 am 01:55 Clear 61 15.9 53 11.4 75 75 W 6 9 29.94 1014 10 16.0934 0 0
2:15 am 02:15 Clear 62 16.5 53 11.5 72 72 NW 5 7 29.91 1013 10 16.0934 0 0
2:35 am 02:35 Clear 61 16.2 53 11.4 73 73 Calm 29.88 1012 10 16.0934 0 0
2:55 am 02:55 Clear 62 16.6 52 11 70 70 Calm 29.88 1012 10 16.0934 0 0
3:15 am 03:15 Clear 60 15.4 52 11.2 76 76 W 3 6 29.91 1013 10 16.0934 0 0
3:35 am 03:35 Clear 60 15.6 53 11.5 77 77 NW 3 6 29.94 1014 10 16.0934 0 0
3:55 am 03:55 Mostly Cloudy 62 16.5 54 12 75 75 WNW 5 7 29.91 1013 10 16.0934 0 0
4:15 am 04:15 Cloudy with Nearby Thunderstorms 62 16.6 54 12.2 75 75 NNW 8 13 29.94 1014 10 16.0934 0 0
4:35 am 04:35 Mostly Cloudy with Light Rain 63 17.1 53 11.5 70 70 N 8 13 29.94 1014 10 16.0934 0 0
4:55 am 04:55 Cloudy with Light Rain 62 16.5 54 12.1 75 75 NW 5 7 29.94 1014 10 16.0934 0 0
5:15 am 05:15 Cloudy with Rain 61 16 55 13 83 83 NW 7 11 30 1016 10 16.0934 0 0
5:35 am 05:35 Cloudy with Rain 61 16 55 12.8 81 81 N 8 13 30 1016 10 16.0934 0.04 1.016
5:55 am 05:55 Cloudy with Nearby Thunderstorms 60 15.8 54 12.4 80 80 NNW 8 13 30 1016 10 16.0934 0.04 1.016
6:15 am 06:15 Cloudy 60 15.8 51 10.6 71 71 NNW 9 15 30 1016 10 16.0934 0 0
6:35 am 06:35 Cloudy 60 15.8 50 9.9 68 68 NNW 14 22 30 1016 10 16.0934 0 0
6:55 am 06:55 Cloudy 60 15.5 49 9.5 68 68 N 12 19 30.03 1017 10 16.0934 0 0
7:15 am 07:15 Mostly Cloudy 59 14.8 47 8.6 67 67 N 12 19 30 1016 10 16.0934 0 0
7:35 am 07:35 Partly Cloudy 59 14.9 47 8.1 64 64 NNW 12 19 30.03 1017 10 16.0934 0 0
7:55 am 07:55 Cloudy 59 15.2 44 6.7 57 57 N 16 26 30.03 1017 10 16.0934 0 0
8:15 am 08:15 Cloudy 60 15.6 43 6.2 54 54 NNW 15 24 30.06 1018 10 16.0934 0 0
8:35 am 08:35 Mostly Cloudy 62 16.9 44 6.5 51 51 NNW 18 30 30.06 1018 10 16.0934 0 0
8:55 am 08:55 Partly Cloudy 61 16.2 43 5.9 51 51 N 22 35 30.06 1018 10 16.0934 0 0
9:15 am 09:15 Sunny 62 16.6 44 6.6 52 52 NNW 24 39 30.09 1019 10 16.0934 0 0
9:35 am 09:35 Partly Cloudy 63 17.1 45 7.2 52 52 N 21 33 30.09 1019 10 16.0934 0 0
9:55 am 09:55 Partly Cloudy 63 17.3 44 6.9 51 51 N 24 39 30.06 1018 10 16.0934 0 0
10:15 am 10:15 Sunny 64 18 45 7.2 49 49 NNW 23 37 30.06 1018 10 16.0934 0 0
10:35 am 10:35 Partly Cloudy 62 16.6 45 7.1 54 54 N 13 20 30.06 1018 10 16.0934 0 0
10:55 am 10:55 Mostly Cloudy 61 16 45 7.3 57 57 N 9 15 30.09 1019 10 16.0934 0 0
11:15 am 11:15 Cloudy 63 17.3 47 8.4 56 56 NNW 12 19 30.09 1019 10 16.0934 0 0
11:35 am 11:35 Mostly Cloudy 64 18 47 8.5 54 54 NNW 9 15 30.06 1018 10 16.0934 0 0
11:55 am 11:55 Mostly Cloudy 66 19 49 9.3 54 54 NW 7 11 30.03 1017 10 16.0934 0 0
12:15 pm 12:15 Mostly Cloudy 70 20.9 50 10.1 50 50 WNW 6 9 30 1016 10 16.0934 0 0
12:35 pm 12:35 Mostly Cloudy 72 22.1 49 9.5 45 45 N 13 20 30 1016 10 16.0934 0 0
12:55 pm 12:55 Mostly Cloudy 73 22.6 46 7.9 39 39 NNW 16 26 30 1016 10 16.0934 0 0
1:15 pm 13:15 Mostly Cloudy 74 23.4 46 7.8 37 37 NW 15 24 30 1016 10 16.0934 0 0
1:35 pm 13:35 Mostly Cloudy 72 22 46 7.7 40 40 NNW 14 22 30 1016 10 16.0934 0 0
1:55 pm 13:55 Mostly Cloudy 72 22.1 46 7.6 39 39 NNW 12 19 30 1016 10 16.0934 0 0
2:15 pm 14:15 Partly Cloudy 73 23 45 7.1 36 36 N 14 22 30 1016 10 16.0934 0 0
2:35 pm 14:35 Sunny 75 23.7 45 7.4 35 35 NNW 12 19 30 1016 10 16.0934 0 0
2:55 pm 14:55 Partly Cloudy 75 24.1 44 6.5 32 32 NNW 12 19 30 1016 10 16.0934 0 0
3:15 pm 15:15 Sunny 76 24.2 45 7.4 34 34 NNW 18 30 30 1016 10 16.0934 0 0
3:35 pm 15:35 Sunny 76 24.3 44 6.5 32 32 NNW 13 20 29.97 1015 10 16.0934 0 0
3:55 pm 15:55 Partly Cloudy 74 23.6 44 6.7 34 34 N 9 15 29.97 1015 10 16.0934 0 0
4:15 pm 16:15 Partly Cloudy 76 24.4 46 7.6 34 34 N 12 19 29.94 1014 10 16.0934 0 0
4:35 pm 16:35 Partly Cloudy 76 24.4 45 7.2 33 33 NW 12 19 29.94 1014 10 16.0934 0 0
4:55 pm 16:55 Partly Cloudy 76 24.4 43 6.3 31 31 NW 13 20 29.94 1014 10 16.0934 0 0
5:15 pm 17:15 Sunny 76 24.3 43 6.3 31 31 NNW 9 15 29.94 1014 10 16.0934 0 0
5:35 pm 17:35 Sunny 76 24.4 44 6.6 32 32 NNW 15 24 29.94 1014 10 16.0934 0 0
5:55 pm 17:55 Partly Cloudy 76 24.2 43 6.3 32 32 N 12 19 29.94 1014 10 16.0934 0 0
6:15 pm 18:15 Sunny 74 23.6 44 6.6 34 34 NNW 15 24 29.97 1015 10 16.0934 0 0
6:35 pm 18:35 Partly Cloudy 75 24 43 6.1 32 32 NNW 14 22 29.94 1014 10 16.0934 0 0
6:55 pm 18:55 Sunny 74 23.5 43 5.9 32 32 N 10 17 29.97 1015 10 16.0934 0 0
7:15 pm 19:15 Sunny 74 23.5 42 5.7 32 32 N 13 20 29.97 1015 10 16.0934 0 0
7:35 pm 19:35 Sunny 73 22.9 43 5.9 33 33 N 12 19 30 1016 10 16.0934 0 0
7:55 pm 19:55 Sunny 73 22.5 43 5.9 34 34 N 12 19 30 1016 10 16.0934 0 0
8:15 pm 20:15 Sunny 72 22 41 5.2 34 34 N 9 15 30 1016 10 16.0934 0 0
8:35 pm 20:35 Sunny 69 20.6 43 6 39 39 N 8 13 30.03 1017 10 16.0934 0 0
8:55 pm 20:55 Sunny 67 19.5 42 5.8 41 41 N 7 11 30.03 1017 10 16.0934 0 0
9:15 pm 21:15 Clear 65 18.2 43 6.3 46 46 NE 6 9 30.06 1018 10 16.0934 0 0
9:35 pm 21:35 Clear 63 17.1 44 6.8 51 51 NNE 5 7 30.09 1019 10 16.0934 0 0
9:55 pm 21:55 Clear 61 16.1 43 6 51 51 NNE 6 9 30.09 1019 10 16.0934 0 0
10:15 pm 22:15 Clear 60 15.4 43 6.1 54 54 Calm 30.12 1020 10 16.0934 0 0
10:35 pm 22:35 Clear 60 15.8 42 5.6 51 51 Calm 30.12 1020 10 16.0934 0 0
10:55 pm 22:55 Clear 60 15.4 42 5.7 53 53 Calm 30.12 1020 10 16.0934 0 0
11:15 pm 23:15 Clear 59 15.1 42 5.7 54 54 Calm 30.12 1020 10 16.0934 0 0
11:35 pm 23:35 Clear 56 13.4 45 7.3 67 67 NW 3 6 30.18 1022 10 16.0934 0 0
11:55 pm 23:55 Clear 54 12 47 8.5 79 79 WNW 3 6 30.18 1022 10 16.0934 0 0

Powered by AerisWeather